Year,Month,Day,Hour,Minute,Value (Times are PST for temperature in C)
2021,08,12,00,00,18.10
2021,08,12,00,01,18.10
2021,08,12,00,02,18.10
2021,08,12,00,03,18.10
2021,08,12,00,04,18.00
2021,08,12,00,05,18.00
2021,08,12,00,06,18.00
2021,08,12,00,07,18.00
2021,08,12,00,08,18.00
2021,08,12,00,09,17.90
2021,08,12,00,10,17.90
2021,08,12,00,11,17.90
2021,08,12,00,12,17.90
2021,08,12,00,13,17.80
2021,08,12,00,14,17.80
2021,08,12,00,15,17.80
2021,08,12,00,16,17.80
2021,08,12,00,17,17.80
2021,08,12,00,18,17.80
2021,08,12,00,19,17.80
2021,08,12,00,20,17.80
2021,08,12,00,21,17.70
2021,08,12,00,22,17.70
2021,08,12,00,23,17.70
2021,08,12,00,24,17.70
2021,08,12,00,25,17.70
2021,08,12,00,26,17.70
2021,08,12,00,27,17.70
2021,08,12,00,28,17.70
2021,08,12,00,29,17.70
2021,08,12,00,30,17.70
2021,08,12,00,31,17.70
2021,08,12,00,32,17.70
2021,08,12,00,33,17.70
2021,08,12,00,34,17.60
2021,08,12,00,35,17.70
2021,08,12,00,36,17.60
2021,08,12,00,37,17.60
2021,08,12,00,38,17.60
2021,08,12,00,39,17.60
2021,08,12,00,40,17.60
2021,08,12,00,41,17.60
2021,08,12,00,42,17.60
2021,08,12,00,43,17.60
2021,08,12,00,44,17.60
2021,08,12,00,45,17.60
2021,08,12,00,46,17.60
2021,08,12,00,47,17.60
2021,08,12,00,48,17.60
2021,08,12,00,49,17.60
2021,08,12,00,50,17.60
2021,08,12,00,51,17.70
2021,08,12,00,52,17.70
2021,08,12,00,53,17.70
2021,08,12,00,54,17.70
2021,08,12,00,55,17.70
2021,08,12,00,56,17.80
2021,08,12,00,57,17.80
2021,08,12,00,58,17.80
2021,08,12,00,59,17.90
2021,08,12,01,00,17.90
2021,08,12,01,01,17.90
2021,08,12,01,02,17.90
2021,08,12,01,03,18.00
2021,08,12,01,04,18.00
2021,08,12,01,05,18.00
2021,08,12,01,06,18.10
2021,08,12,01,07,18.10
2021,08,12,01,08,18.10
2021,08,12,01,09,18.10
2021,08,12,01,10,18.10
2021,08,12,01,11,18.20
2021,08,12,01,12,18.20
2021,08,12,01,13,18.20
2021,08,12,01,14,18.20
2021,08,12,01,15,18.20
2021,08,12,01,16,18.20
2021,08,12,01,17,18.20
2021,08,12,01,18,18.20
2021,08,12,01,19,18.20
2021,08,12,01,20,18.20
2021,08,12,01,21,18.20
2021,08,12,01,22,18.20
2021,08,12,01,23,18.20
2021,08,12,01,24,18.20
2021,08,12,01,25,18.20
2021,08,12,01,26,18.20
2021,08,12,01,27,18.20
2021,08,12,01,28,18.20
2021,08,12,01,29,18.20
2021,08,12,01,30,18.20
2021,08,12,01,31,18.20
2021,08,12,01,32,18.20
2021,08,12,01,33,18.20
2021,08,12,01,34,18.20
2021,08,12,01,35,18.20
2021,08,12,01,36,18.20
2021,08,12,01,37,18.20
2021,08,12,01,38,18.20
2021,08,12,01,39,18.20
2021,08,12,01,40,18.20
2021,08,12,01,41,18.20
2021,08,12,01,42,18.20
2021,08,12,01,43,18.20
2021,08,12,01,44,18.20
2021,08,12,01,45,18.20
2021,08,12,01,46,18.20
2021,08,12,01,47,18.20
2021,08,12,01,48,18.20
2021,08,12,01,49,18.20
2021,08,12,01,50,18.20
2021,08,12,01,51,18.10
2021,08,12,01,52,18.10
2021,08,12,01,53,18.10
2021,08,12,01,54,18.10
2021,08,12,01,55,18.10
2021,08,12,01,56,18.10
2021,08,12,01,57,18.10
2021,08,12,01,58,18.10
2021,08,12,01,59,18.10
2021,08,12,02,00,18.10
2021,08,12,02,01,18.10
2021,08,12,02,02,18.10
2021,08,12,02,03,18.10
2021,08,12,02,04,18.10
2021,08,12,02,05,18.10
2021,08,12,02,06,18.10
2021,08,12,02,07,18.10
2021,08,12,02,08,18.10
2021,08,12,02,09,18.00
2021,08,12,02,10,18.10
2021,08,12,02,11,18.10
2021,08,12,02,12,18.00
2021,08,12,02,13,18.00
2021,08,12,02,14,18.00
2021,08,12,02,15,18.00
2021,08,12,02,16,18.00
2021,08,12,02,17,18.00
2021,08,12,02,18,18.00
2021,08,12,02,19,18.00
2021,08,12,02,20,18.00
2021,08,12,02,21,18.00
2021,08,12,02,22,17.90
2021,08,12,02,23,17.90
2021,08,12,02,24,17.90
2021,08,12,02,25,17.90
2021,08,12,02,26,17.90
2021,08,12,02,27,17.90
2021,08,12,02,28,17.90
2021,08,12,02,29,17.90
2021,08,12,02,30,17.90
2021,08,12,02,31,17.80
2021,08,12,02,32,17.80
2021,08,12,02,33,17.80
2021,08,12,02,34,17.80
2021,08,12,02,35,17.80
2021,08,12,02,36,17.80
2021,08,12,02,37,17.80
2021,08,12,02,38,17.80
2021,08,12,02,39,17.80
2021,08,12,02,40,17.80
2021,08,12,02,41,17.70
2021,08,12,02,42,17.70
2021,08,12,02,43,17.70
2021,08,12,02,44,17.70
2021,08,12,02,45,17.70
2021,08,12,02,46,17.70
2021,08,12,02,47,17.70
2021,08,12,02,48,17.70
2021,08,12,02,49,17.70
2021,08,12,02,50,17.70
2021,08,12,02,51,17.70
2021,08,12,02,52,17.70
2021,08,12,02,53,17.70
2021,08,12,02,54,17.70
2021,08,12,02,55,17.70
2021,08,12,02,56,17.70
2021,08,12,02,57,17.70
2021,08,12,02,58,17.70
2021,08,12,02,59,17.70
2021,08,12,03,00,17.70
2021,08,12,03,01,17.70
2021,08,12,03,02,17.70
2021,08,12,03,03,17.70
2021,08,12,03,04,17.70
2021,08,12,03,05,17.70
2021,08,12,03,06,17.70
2021,08,12,03,07,17.70
2021,08,12,03,08,17.70
2021,08,12,03,09,17.70
2021,08,12,03,10,17.60
2021,08,12,03,11,17.60
2021,08,12,03,12,17.60
2021,08,12,03,13,17.60
2021,08,12,03,14,17.60
2021,08,12,03,15,17.60
2021,08,12,03,16,17.60
2021,08,12,03,17,17.60
2021,08,12,03,18,17.60
2021,08,12,03,19,17.60
2021,08,12,03,20,17.60
2021,08,12,03,21,17.60
2021,08,12,03,22,17.60
2021,08,12,03,23,17.60
2021,08,12,03,24,17.50
2021,08,12,03,25,17.60
2021,08,12,03,26,17.50
2021,08,12,03,27,17.50
2021,08,12,03,28,17.50
2021,08,12,03,29,17.50
2021,08,12,03,30,17.50
2021,08,12,03,31,17.40
2021,08,12,03,32,17.40
2021,08,12,03,33,17.40
2021,08,12,03,34,17.40
2021,08,12,03,35,17.40
2021,08,12,03,36,17.40
2021,08,12,03,37,17.40
2021,08,12,03,38,17.40
2021,08,12,03,39,17.40
2021,08,12,03,40,17.40
2021,08,12,03,41,17.40
2021,08,12,03,42,17.40
2021,08,12,03,43,17.40
2021,08,12,03,44,17.40
2021,08,12,03,45,17.40
2021,08,12,03,46,17.50
2021,08,12,03,47,17.40
2021,08,12,03,48,17.50
2021,08,12,03,49,17.50
2021,08,12,03,50,17.50
2021,08,12,03,51,17.60
2021,08,12,03,52,17.60
2021,08,12,03,53,17.60
2021,08,12,03,54,17.60
2021,08,12,03,55,17.60
2021,08,12,03,56,17.70
2021,08,12,03,57,17.70
2021,08,12,03,58,17.70
2021,08,12,03,59,17.70
2021,08,12,04,00,17.70
2021,08,12,04,01,17.80
2021,08,12,04,02,17.80
2021,08,12,04,03,17.80
2021,08,12,04,04,17.80
2021,08,12,04,05,17.80
2021,08,12,04,06,17.80
2021,08,12,04,07,17.90
2021,08,12,04,08,17.90
2021,08,12,04,09,17.90
2021,08,12,04,10,17.90
2021,08,12,04,11,17.90
2021,08,12,04,12,18.00
2021,08,12,04,13,18.00
2021,08,12,04,14,18.00
2021,08,12,04,15,18.10
2021,08,12,04,16,18.10
2021,08,12,04,17,18.10
2021,08,12,04,18,18.10
2021,08,12,04,19,18.20
2021,08,12,04,20,18.20
2021,08,12,04,21,18.20
2021,08,12,04,22,18.20
2021,08,12,04,23,18.20
2021,08,12,04,24,18.20
2021,08,12,04,25,18.20
2021,08,12,04,26,18.20
2021,08,12,04,27,18.30
2021,08,12,04,28,18.30
2021,08,12,04,29,18.30
2021,08,12,04,30,18.30
2021,08,12,04,31,18.30
2021,08,12,04,32,18.30
2021,08,12,04,33,18.30
2021,08,12,04,34,18.30
2021,08,12,04,35,18.30
2021,08,12,04,36,18.30
2021,08,12,04,37,18.20
2021,08,12,04,38,18.20
2021,08,12,04,39,18.20
2021,08,12,04,40,18.20
2021,08,12,04,41,18.20
2021,08,12,04,42,18.20
2021,08,12,04,43,18.20
2021,08,12,04,44,18.20
2021,08,12,04,45,18.20
2021,08,12,04,46,18.20
2021,08,12,04,47,18.20
2021,08,12,04,48,18.20
2021,08,12,04,49,18.20
2021,08,12,04,50,18.20
2021,08,12,04,51,18.20
2021,08,12,04,52,18.20
2021,08,12,04,53,18.20
2021,08,12,04,54,18.10
2021,08,12,04,55,18.10
2021,08,12,04,56,18.10
2021,08,12,04,57,18.10
2021,08,12,04,58,18.00
2021,08,12,04,59,18.00
2021,08,12,05,00,18.00
2021,08,12,05,01,18.00
2021,08,12,05,02,18.00
2021,08,12,05,03,17.90
2021,08,12,05,04,17.90
2021,08,12,05,05,17.90
2021,08,12,05,06,17.90
2021,08,12,05,07,17.90
2021,08,12,05,08,17.80
2021,08,12,05,09,17.80
2021,08,12,05,10,17.80
2021,08,12,05,11,17.80
2021,08,12,05,12,17.80
2021,08,12,05,13,17.70
2021,08,12,05,14,17.70
2021,08,12,05,15,17.70
2021,08,12,05,16,17.70
2021,08,12,05,17,17.60
2021,08,12,05,18,17.60
2021,08,12,05,19,17.60
2021,08,12,05,20,17.60
2021,08,12,05,21,17.60
2021,08,12,05,22,17.60
2021,08,12,05,23,17.60
2021,08,12,05,24,17.60
2021,08,12,05,25,17.50
2021,08,12,05,26,17.50
2021,08,12,05,27,17.50
2021,08,12,05,28,17.60
2021,08,12,05,29,17.50
2021,08,12,05,30,17.50
2021,08,12,05,31,17.50
2021,08,12,05,32,17.50
2021,08,12,05,33,17.50
2021,08,12,05,34,17.50
2021,08,12,05,35,17.50
2021,08,12,05,36,17.50
2021,08,12,05,37,17.50
2021,08,12,05,38,17.40
2021,08,12,05,39,17.40
2021,08,12,05,40,17.40
2021,08,12,05,41,17.40
2021,08,12,05,42,17.40
2021,08,12,05,43,17.40
2021,08,12,05,44,17.30
2021,08,12,05,45,17.30
2021,08,12,05,46,17.30
2021,08,12,05,47,17.30
2021,08,12,05,48,17.30
2021,08,12,05,49,17.30
2021,08,12,05,50,17.30
2021,08,12,05,51,17.20
2021,08,12,05,52,17.20
2021,08,12,05,53,17.20
2021,08,12,05,54,17.20
2021,08,12,05,55,17.20
2021,08,12,05,56,17.20
2021,08,12,05,57,17.10
2021,08,12,05,58,17.10
2021,08,12,05,59,17.10
2021,08,12,06,00,17.10
2021,08,12,06,01,17.10
2021,08,12,06,02,17.10
2021,08,12,06,03,17.10
2021,08,12,06,04,17.10
2021,08,12,06,05,17.10
2021,08,12,06,06,17.00
2021,08,12,06,07,17.00
2021,08,12,06,08,17.00
2021,08,12,06,09,17.00
2021,08,12,06,10,17.00
2021,08,12,06,11,17.00
2021,08,12,06,12,17.00
2021,08,12,06,13,17.00
2021,08,12,06,14,16.90
2021,08,12,06,15,16.90
2021,08,12,06,16,16.90
2021,08,12,06,17,16.90
2021,08,12,06,18,16.90
2021,08,12,06,19,16.90
2021,08,12,06,20,16.90
2021,08,12,06,21,16.80
2021,08,12,06,22,16.80
2021,08,12,06,23,16.80
2021,08,12,06,24,16.80
2021,08,12,06,25,16.80
2021,08,12,06,26,16.80
2021,08,12,06,27,16.80
2021,08,12,06,28,16.80
2021,08,12,06,29,16.80
2021,08,12,06,30,16.80
2021,08,12,06,31,16.70
2021,08,12,06,32,16.70
2021,08,12,06,33,16.70
2021,08,12,06,34,16.70
2021,08,12,06,35,16.70
2021,08,12,06,36,16.70
2021,08,12,06,37,16.70
2021,08,12,06,38,16.70
2021,08,12,06,39,16.70
2021,08,12,06,40,16.70
2021,08,12,06,41,16.70
2021,08,12,06,42,16.70
2021,08,12,06,43,16.70
2021,08,12,06,44,16.70
2021,08,12,06,45,16.70
2021,08,12,06,46,16.70
2021,08,12,06,47,16.70
2021,08,12,06,48,16.70
2021,08,12,06,49,16.70
2021,08,12,06,50,16.70
2021,08,12,06,51,16.70
2021,08,12,06,52,16.70
2021,08,12,06,53,16.70
2021,08,12,06,54,16.70
2021,08,12,06,55,16.70
2021,08,12,06,56,16.70
2021,08,12,06,57,16.70
2021,08,12,06,58,16.70
2021,08,12,06,59,16.70
2021,08,12,07,00,16.70
2021,08,12,07,01,16.70
2021,08,12,07,02,16.70
2021,08,12,07,03,16.70
2021,08,12,07,04,16.70
2021,08,12,07,05,16.70
2021,08,12,07,06,16.70
2021,08,12,07,07,16.70
2021,08,12,07,08,16.70
2021,08,12,07,09,16.70
2021,08,12,07,10,16.70
2021,08,12,07,11,16.70
2021,08,12,07,12,16.80
2021,08,12,07,13,16.80
2021,08,12,07,14,16.80
2021,08,12,07,15,16.80
2021,08,12,07,16,16.80
2021,08,12,07,17,16.80
2021,08,12,07,18,16.80
2021,08,12,07,19,16.80
2021,08,12,07,20,16.80
2021,08,12,07,21,16.80
2021,08,12,07,22,16.80
2021,08,12,07,23,16.90
2021,08,12,07,24,16.90
2021,08,12,07,25,16.90
2021,08,12,07,26,16.90
2021,08,12,07,27,16.90
2021,08,12,07,28,16.90
2021,08,12,07,29,16.90
2021,08,12,07,30,16.90
2021,08,12,07,31,16.90
2021,08,12,07,32,16.90
2021,08,12,07,33,17.00
2021,08,12,07,34,17.00
2021,08,12,07,35,17.00
2021,08,12,07,36,17.00
2021,08,12,07,37,17.00
2021,08,12,07,38,17.00
2021,08,12,07,39,17.00
2021,08,12,07,40,17.10
2021,08,12,07,41,17.10
2021,08,12,07,42,17.10
2021,08,12,07,43,17.10
2021,08,12,07,44,17.20
2021,08,12,07,45,17.20
2021,08,12,07,46,17.20
2021,08,12,07,47,17.30
2021,08,12,07,48,17.30
2021,08,12,07,49,17.30
2021,08,12,07,50,17.30
2021,08,12,07,51,17.40
2021,08,12,07,52,17.40
2021,08,12,07,53,17.40
2021,08,12,07,54,17.40
2021,08,12,07,55,17.50
2021,08,12,07,56,17.60
2021,08,12,07,57,17.60
2021,08,12,07,58,17.60
2021,08,12,07,59,17.70
2021,08,12,08,00,17.70
2021,08,12,08,01,17.80
2021,08,12,08,02,17.80
2021,08,12,08,03,17.80
2021,08,12,08,04,17.90
2021,08,12,08,05,17.90
2021,08,12,08,06,18.00
2021,08,12,08,07,18.00
2021,08,12,08,08,18.10
2021,08,12,08,09,18.10
2021,08,12,08,10,18.20
2021,08,12,08,11,18.20
2021,08,12,08,12,18.30
2021,08,12,08,13,18.30
2021,08,12,08,14,18.30
2021,08,12,08,15,18.40
2021,08,12,08,16,18.50
2021,08,12,08,17,18.50
2021,08,12,08,18,18.60
2021,08,12,08,19,18.60
2021,08,12,08,20,18.70
2021,08,12,08,21,18.70
2021,08,12,08,22,18.80
2021,08,12,08,23,18.80
2021,08,12,08,24,18.90
2021,08,12,08,25,18.90
2021,08,12,08,26,18.90
2021,08,12,08,27,19.00
2021,08,12,08,28,19.10
2021,08,12,08,29,19.10
2021,08,12,08,30,19.20
2021,08,12,08,31,19.20
2021,08,12,08,32,19.30
2021,08,12,08,33,19.30
2021,08,12,08,34,19.40
2021,08,12,08,35,19.40
2021,08,12,08,36,19.50
2021,08,12,08,37,19.60
2021,08,12,08,38,19.60
2021,08,12,08,39,19.70
2021,08,12,08,40,19.70
2021,08,12,08,41,19.70
2021,08,12,08,42,19.70
2021,08,12,08,43,19.90
2021,08,12,08,44,19.90
2021,08,12,08,45,20.00
2021,08,12,08,46,20.10
2021,08,12,08,47,20.10
2021,08,12,08,48,20.20
2021,08,12,08,49,20.30
2021,08,12,08,50,20.30
2021,08,12,08,51,20.40
2021,08,12,08,52,20.40
2021,08,12,08,53,20.50
2021,08,12,08,54,20.60
2021,08,12,08,55,20.70
2021,08,12,08,56,20.70
2021,08,12,08,57,20.80
2021,08,12,08,58,20.90
2021,08,12,08,59,21.00
2021,08,12,09,00,21.00
2021,08,12,09,01,21.10
2021,08,12,09,02,21.20
2021,08,12,09,03,21.20
2021,08,12,09,04,21.30
2021,08,12,09,05,21.40
2021,08,12,09,06,21.40
2021,08,12,09,07,21.50
2021,08,12,09,08,21.60
2021,08,12,09,09,21.60
2021,08,12,09,10,21.70
2021,08,12,09,11,21.80
2021,08,12,09,12,21.80
2021,08,12,09,13,21.80
2021,08,12,09,14,21.90
2021,08,12,09,15,21.90
2021,08,12,09,16,22.00
2021,08,12,09,17,22.00
2021,08,12,09,18,22.10
2021,08,12,09,19,22.10
2021,08,12,09,20,22.10
2021,08,12,09,21,22.10
2021,08,12,09,22,22.20
2021,08,12,09,23,22.20
2021,08,12,09,24,22.20
2021,08,12,09,25,22.20
2021,08,12,09,26,22.20
2021,08,12,09,27,22.30
2021,08,12,09,28,22.30
2021,08,12,09,29,22.30
2021,08,12,09,30,22.30
2021,08,12,09,31,22.40
2021,08,12,09,32,22.40
2021,08,12,09,33,22.50
2021,08,12,09,34,22.50
2021,08,12,09,35,22.50
2021,08,12,09,36,22.60
2021,08,12,09,37,22.60
2021,08,12,09,38,22.70
2021,08,12,09,39,22.70
2021,08,12,09,40,22.70
2021,08,12,09,41,22.80
2021,08,12,09,42,22.80
2021,08,12,09,43,22.80
2021,08,12,09,44,22.80
2021,08,12,09,45,22.80
2021,08,12,09,46,22.80
2021,08,12,09,47,22.90
2021,08,12,09,48,22.90
2021,08,12,09,49,22.90
2021,08,12,09,50,22.90
2021,08,12,09,51,22.90
2021,08,12,09,52,22.90
2021,08,12,09,53,23.00
2021,08,12,09,54,23.00
2021,08,12,09,55,23.10
2021,08,12,09,56,23.10
2021,08,12,09,57,23.10
2021,08,12,09,58,23.20
2021,08,12,09,59,23.30
2021,08,12,10,00,23.30
2021,08,12,10,01,23.40
2021,08,12,10,02,23.40
2021,08,12,10,03,23.50
2021,08,12,10,04,23.60
2021,08,12,10,05,23.70
2021,08,12,10,06,23.70
2021,08,12,10,07,23.80
2021,08,12,10,08,23.80
2021,08,12,10,09,23.90
2021,08,12,10,10,23.90
2021,08,12,10,11,24.00
2021,08,12,10,12,24.00
2021,08,12,10,13,24.10
2021,08,12,10,14,24.10
2021,08,12,10,15,24.10
2021,08,12,10,16,24.20
2021,08,12,10,17,24.20
2021,08,12,10,18,24.30
2021,08,12,10,19,24.30
2021,08,12,10,20,24.30
2021,08,12,10,21,24.30
2021,08,12,10,22,24.40
2021,08,12,10,23,24.40
2021,08,12,10,24,24.40
2021,08,12,10,25,24.40
2021,08,12,10,26,24.50
2021,08,12,10,27,24.50
2021,08,12,10,28,24.50
2021,08,12,10,29,24.60
2021,08,12,10,30,24.60
2021,08,12,10,31,24.70
2021,08,12,10,32,24.70
2021,08,12,10,33,24.70
2021,08,12,10,34,24.70
2021,08,12,10,35,24.80
2021,08,12,10,36,24.80
2021,08,12,10,37,24.90
2021,08,12,10,38,24.90
2021,08,12,10,39,24.90
2021,08,12,10,40,24.90
2021,08,12,10,41,24.90
2021,08,12,10,42,24.90
2021,08,12,10,43,24.90
2021,08,12,10,44,24.90
2021,08,12,10,45,24.90
2021,08,12,10,46,24.90
2021,08,12,10,47,24.90
2021,08,12,10,48,24.90
2021,08,12,10,49,24.90
2021,08,12,10,50,24.90
2021,08,12,10,51,24.90
2021,08,12,10,52,24.90
2021,08,12,10,53,24.90
2021,08,12,10,54,24.90
2021,08,12,10,55,24.90
2021,08,12,10,56,24.90
2021,08,12,10,57,24.90
2021,08,12,10,58,24.80
2021,08,12,10,59,24.80
2021,08,12,11,00,24.80
2021,08,12,11,01,24.80
2021,08,12,11,02,24.80
2021,08,12,11,03,24.80
2021,08,12,11,04,24.90
2021,08,12,11,05,24.90
2021,08,12,11,06,24.90
2021,08,12,11,07,24.90
2021,08,12,11,08,25.00
2021,08,12,11,09,25.00
2021,08,12,11,10,25.00
2021,08,12,11,11,25.10
2021,08,12,11,12,25.10
2021,08,12,11,13,25.10
2021,08,12,11,14,25.20
2021,08,12,11,15,25.20
2021,08,12,11,16,25.20
2021,08,12,11,17,25.30
2021,08,12,11,18,25.30
2021,08,12,11,19,25.40
2021,08,12,11,20,25.50
2021,08,12,11,21,25.50
2021,08,12,11,22,25.60
2021,08,12,11,23,25.70
2021,08,12,11,24,25.80
2021,08,12,11,25,25.80
2021,08,12,11,26,25.90
2021,08,12,11,27,26.00
2021,08,12,11,28,26.00
2021,08,12,11,29,26.10
2021,08,12,11,30,26.20
2021,08,12,11,31,26.20
2021,08,12,11,32,26.30
2021,08,12,11,33,26.40
2021,08,12,11,34,26.50
2021,08,12,11,35,26.60
2021,08,12,11,36,26.70
2021,08,12,11,37,26.80
2021,08,12,11,38,26.90
2021,08,12,11,39,27.00
2021,08,12,11,40,27.10
2021,08,12,11,41,27.20
2021,08,12,11,42,27.40
2021,08,12,11,43,27.50
2021,08,12,11,44,27.60
2021,08,12,11,45,27.70
2021,08,12,11,46,27.80
2021,08,12,11,47,27.90
2021,08,12,11,48,28.00
2021,08,12,11,49,28.10
2021,08,12,11,50,28.20
2021,08,12,11,51,28.20
2021,08,12,11,52,28.30
2021,08,12,11,53,28.30
2021,08,12,11,54,28.30
2021,08,12,11,55,28.30
2021,08,12,11,56,28.30
2021,08,12,11,57,28.30
2021,08,12,11,58,28.30
2021,08,12,11,59,28.30
2021,08,12,12,00,28.30
2021,08,12,12,01,28.40
2021,08,12,12,02,28.40
2021,08,12,12,03,28.50
2021,08,12,12,04,28.50
2021,08,12,12,05,28.60
2021,08,12,12,06,28.60
2021,08,12,12,07,28.60
2021,08,12,12,08,28.60
2021,08,12,12,09,28.60
2021,08,12,12,10,28.60
2021,08,12,12,11,28.60
2021,08,12,12,12,28.60
2021,08,12,12,13,28.60
2021,08,12,12,14,28.60
2021,08,12,12,15,28.70
2021,08,12,12,16,28.70
2021,08,12,12,17,28.80
2021,08,12,12,18,28.80
2021,08,12,12,19,28.80
2021,08,12,12,20,28.90
2021,08,12,12,21,28.90
2021,08,12,12,22,29.00
2021,08,12,12,23,29.00
2021,08,12,12,24,29.10
2021,08,12,12,25,29.10
2021,08,12,12,26,29.10
2021,08,12,12,27,29.20
2021,08,12,12,28,29.20
2021,08,12,12,29,29.20
2021,08,12,12,30,29.30
2021,08,12,12,31,29.30
2021,08,12,12,32,29.30
2021,08,12,12,33,29.30
2021,08,12,12,34,29.30
2021,08,12,12,35,29.40
2021,08,12,12,36,29.40
2021,08,12,12,37,29.50
2021,08,12,12,38,29.50
2021,08,12,12,39,29.60
2021,08,12,12,40,29.70
2021,08,12,12,41,29.70
2021,08,12,12,42,29.80
2021,08,12,12,43,29.80
2021,08,12,12,44,29.90
2021,08,12,12,45,29.90
2021,08,12,12,46,29.90
2021,08,12,12,47,30.00
2021,08,12,12,48,30.10
2021,08,12,12,49,30.10
2021,08,12,12,50,30.10
2021,08,12,12,51,30.20
2021,08,12,12,52,30.20
2021,08,12,12,53,30.30
2021,08,12,12,54,30.30
2021,08,12,12,55,30.40
2021,08,12,12,56,30.40
2021,08,12,12,57,30.50
2021,08,12,12,58,30.60
2021,08,12,12,59,30.70
2021,08,12,13,00,30.70
2021,08,12,13,01,30.80
2021,08,12,13,02,30.90
2021,08,12,13,03,30.90
2021,08,12,13,04,30.90
2021,08,12,13,05,31.00
2021,08,12,13,06,31.00
2021,08,12,13,07,31.10
2021,08,12,13,08,31.20
2021,08,12,13,09,31.20
2021,08,12,13,10,31.30
2021,08,12,13,11,31.40
2021,08,12,13,12,31.40
2021,08,12,13,13,31.50
2021,08,12,13,14,31.50
2021,08,12,13,15,31.60
2021,08,12,13,16,31.70
2021,08,12,13,17,31.70
2021,08,12,13,18,31.70
2021,08,12,13,19,31.80
2021,08,12,13,20,31.80
2021,08,12,13,21,31.80
2021,08,12,13,22,31.80
2021,08,12,13,23,31.90
2021,08,12,13,24,31.90
2021,08,12,13,25,31.90
2021,08,12,13,26,31.90
2021,08,12,13,27,32.00
2021,08,12,13,28,32.00
2021,08,12,13,29,32.00
2021,08,12,13,30,32.10
2021,08,12,13,31,32.10
2021,08,12,13,32,32.10
2021,08,12,13,33,32.10
2021,08,12,13,34,32.10
2021,08,12,13,35,32.10
2021,08,12,13,36,32.10
2021,08,12,13,37,32.00
2021,08,12,13,38,32.00
2021,08,12,13,39,32.00
2021,08,12,13,40,32.00
2021,08,12,13,41,32.00
2021,08,12,13,42,32.00
2021,08,12,13,43,32.00
2021,08,12,13,44,32.10
2021,08,12,13,45,32.10
2021,08,12,13,46,32.10
2021,08,12,13,47,32.10
2021,08,12,13,48,32.10
2021,08,12,13,49,32.10
2021,08,12,13,50,32.20
2021,08,12,13,51,32.20
2021,08,12,13,52,32.20
2021,08,12,13,53,32.20
2021,08,12,13,54,32.30
2021,08,12,13,55,32.30
2021,08,12,13,56,32.30
2021,08,12,13,57,32.40
2021,08,12,13,58,32.40
2021,08,12,13,59,32.40
2021,08,12,14,00,32.50
2021,08,12,14,01,32.50
2021,08,12,14,02,32.50
2021,08,12,14,03,32.50
2021,08,12,14,04,32.50
2021,08,12,14,05,32.50
2021,08,12,14,06,32.50
2021,08,12,14,07,32.40
2021,08,12,14,08,32.30
2021,08,12,14,09,32.30
2021,08,12,14,10,32.20
2021,08,12,14,11,32.10
2021,08,12,14,12,32.10
2021,08,12,14,13,32.10
2021,08,12,14,14,32.10
2021,08,12,14,15,32.10
2021,08,12,14,16,32.10
2021,08,12,14,17,32.10
2021,08,12,14,18,32.20
2021,08,12,14,19,32.20
2021,08,12,14,20,32.20
2021,08,12,14,21,32.20
2021,08,12,14,22,32.30
2021,08,12,14,23,32.30
2021,08,12,14,24,32.30
2021,08,12,14,25,32.30
2021,08,12,14,26,32.40
2021,08,12,14,27,32.40
2021,08,12,14,28,32.40
2021,08,12,14,29,32.40
2021,08,12,14,30,32.50
2021,08,12,14,31,32.50
2021,08,12,14,32,32.50
2021,08,12,14,33,32.60
2021,08,12,14,34,32.60
2021,08,12,14,35,32.70
2021,08,12,14,36,32.70
2021,08,12,14,37,32.80
2021,08,12,14,38,32.80
2021,08,12,14,39,32.90
2021,08,12,14,40,32.90
2021,08,12,14,41,33.00
2021,08,12,14,42,33.00
2021,08,12,14,43,33.10
2021,08,12,14,44,33.20
2021,08,12,14,45,33.20
2021,08,12,14,46,33.30
2021,08,12,14,47,33.30
2021,08,12,14,48,33.40
2021,08,12,14,49,33.50
2021,08,12,14,50,33.60
2021,08,12,14,51,33.70
2021,08,12,14,52,33.70
2021,08,12,14,53,33.80
2021,08,12,14,54,33.80
2021,08,12,14,55,33.80
2021,08,12,14,56,33.80
2021,08,12,14,57,33.90
2021,08,12,14,58,33.90
2021,08,12,14,59,33.90
2021,08,12,15,00,33.90
2021,08,12,15,01,33.90
2021,08,12,15,02,33.90
2021,08,12,15,03,33.90
2021,08,12,15,04,34.00
2021,08,12,15,05,34.00
2021,08,12,15,06,34.10
2021,08,12,15,07,34.00
2021,08,12,15,08,34.00
2021,08,12,15,09,34.00
2021,08,12,15,10,34.00
2021,08,12,15,11,34.00
2021,08,12,15,12,33.80
2021,08,12,15,13,33.80
2021,08,12,15,14,33.70
2021,08,12,15,15,33.60
2021,08,12,15,16,33.50
2021,08,12,15,17,33.40
2021,08,12,15,18,33.40
2021,08,12,15,19,33.30
2021,08,12,15,20,33.30
2021,08,12,15,21,33.30
2021,08,12,15,22,33.20
2021,08,12,15,23,33.20
2021,08,12,15,24,33.10
2021,08,12,15,25,33.10
2021,08,12,15,26,33.10
2021,08,12,15,27,33.10
2021,08,12,15,28,33.10
2021,08,12,15,29,33.00
2021,08,12,15,30,33.00
2021,08,12,15,31,33.00
2021,08,12,15,32,33.00
2021,08,12,15,33,33.00
2021,08,12,15,34,33.00
2021,08,12,15,35,33.00
2021,08,12,15,36,33.00
2021,08,12,15,37,33.10
2021,08,12,15,38,33.10
2021,08,12,15,39,33.10
2021,08,12,15,40,33.20
2021,08,12,15,41,33.20
2021,08,12,15,42,33.20
2021,08,12,15,43,33.30
2021,08,12,15,44,33.30
2021,08,12,15,45,33.40
2021,08,12,15,46,33.40
2021,08,12,15,47,33.40
2021,08,12,15,48,33.50
2021,08,12,15,49,33.60
2021,08,12,15,50,33.60
2021,08,12,15,51,33.60
2021,08,12,15,52,33.60
2021,08,12,15,53,33.70
2021,08,12,15,54,33.70
2021,08,12,15,55,33.80
2021,08,12,15,56,33.80
2021,08,12,15,57,33.90
2021,08,12,15,58,33.90
2021,08,12,15,59,34.00
2021,08,12,16,00,34.00
2021,08,12,16,01,34.10
2021,08,12,16,02,34.10
2021,08,12,16,03,34.10
2021,08,12,16,04,34.10
2021,08,12,16,05,34.20
2021,08,12,16,06,34.20
2021,08,12,16,07,34.20
2021,08,12,16,08,34.20
2021,08,12,16,09,34.20
2021,08,12,16,10,34.30
2021,08,12,16,11,34.30
2021,08,12,16,12,34.30
2021,08,12,16,13,34.30
2021,08,12,16,14,34.30
2021,08,12,16,15,34.30
2021,08,12,16,16,34.20
2021,08,12,16,17,34.20
2021,08,12,16,18,34.10
2021,08,12,16,19,34.10
2021,08,12,16,20,34.00
2021,08,12,16,21,34.00
2021,08,12,16,22,33.90
2021,08,12,16,23,34.00
2021,08,12,16,24,34.00
2021,08,12,16,25,34.00
2021,08,12,16,26,34.00
2021,08,12,16,27,34.00
2021,08,12,16,28,34.10
2021,08,12,16,29,34.10
2021,08,12,16,30,34.20
2021,08,12,16,31,34.20
2021,08,12,16,32,34.30
2021,08,12,16,33,34.30
2021,08,12,16,34,34.40
2021,08,12,16,35,34.40
2021,08,12,16,36,34.50
2021,08,12,16,37,34.60
2021,08,12,16,38,34.60
2021,08,12,16,39,34.70
2021,08,12,16,40,34.70
2021,08,12,16,41,34.80
2021,08,12,16,42,34.80
2021,08,12,16,43,34.80
2021,08,12,16,44,34.80
2021,08,12,16,45,34.80
2021,08,12,16,46,34.90
2021,08,12,16,47,34.90
2021,08,12,16,48,34.90
2021,08,12,16,49,34.90
2021,08,12,16,50,34.90
2021,08,12,16,51,35.00
2021,08,12,16,52,35.00
2021,08,12,16,53,35.10
2021,08,12,16,54,35.10
2021,08,12,16,55,35.10
2021,08,12,16,56,35.20
2021,08,12,16,57,35.20
2021,08,12,16,58,35.20
2021,08,12,16,59,35.30
2021,08,12,17,00,35.30
2021,08,12,17,01,35.30
2021,08,12,17,02,35.40
2021,08,12,17,03,35.30
2021,08,12,17,04,35.40
2021,08,12,17,05,35.30
2021,08,12,17,06,35.30
2021,08,12,17,07,35.30
2021,08,12,17,08,35.30
2021,08,12,17,09,35.30
2021,08,12,17,10,35.30
2021,08,12,17,11,35.30
2021,08,12,17,12,35.30
2021,08,12,17,13,35.30
2021,08,12,17,14,35.30
2021,08,12,17,15,35.30
2021,08,12,17,16,35.30
2021,08,12,17,17,35.30
2021,08,12,17,18,35.30
2021,08,12,17,19,35.30